Weather History for Rome, OR

Change the Weather History Date:

Saturday, August 31, 2013

  Actual Average Record
Temperature  
Mean Temperature 72 °F 66 °F  
Max Temperature 95 °F 86 °F 102 °F (2004)
Min Temperature 49 °F 47 °F 35 °F (2010)
Degree Days  
Heating Degree Days 0 2  
Month to date heating degree days 0 28  
Since 1 June heating degree days 94 166  
Since 1 July heating degree days 0 41  
Cooling Degree Days 7 4  
Month to date cooling degree days 262 179  
Year to date cooling degree days 800 466  
Since 1 June cooling degree days 778 456  
Growing Degree Days 22 (Base 50)    
Moisture  
Dew Point 29 °F    
Average Humidity 26    
Maximum Humidity 44    
Minimum Humidity 7    
Precipitation  
Precipitation 0.00 in 0.01 in 0.45 in (1964)
Month to date precipitation 0.16 0.36  
Year to date precipitation 3.23 6.33  
Sea Level Pressure  
Sea Level Pressure 29.93 in    
Wind  
Wind Speed 6 mph (South)    
Max Wind Speed 16 mph    
Max Gust Speed 26 mph    
T = Trace of Precipitation, MM = Missing Value Source: NWS Daily Summary

Daily Weather History Graph

Daily Weather History Graph

Search for Another Location

Airport:

Trip Planner

Search our weather history database for the weather conditions in past years. The results will help you decide how hot, cold, wet, or windy it might be!

Date:

Astronomy

Aug. 31, 2013 Rise Set
Actual Time 6:15 AM PDT 7:26 PM PDT
Civil Twilight 5:46 AM PDT 7:55 PM PDT
Nautical Twilight 5:11 AM PDT 8:30 PM PDT
Astronomical Twilight 4:35 AM PDT 9:06 PM PDT
Moon 1:44 AM PDT (8/31) 4:31 PM PDT (8/31)
Length of Visible Light 14h 09m
Length of Day
13h 11m
Waning Crescent, 20% of the Moon is Illuminated
Aug 31
Waning Crescent
Sep 5
New
Sep 12
First Quarter
Sep 19
Full
Sep 26
Last Quarter

Hourly Weather History & Observations

Time (PDT) Temp. Dew Point Humidity Pressure Visibility Wind Dir Wind Speed Gust Speed Precip Events Conditions
12:52 AM 57.9 °F 30.0 °F 35% 29.99 in - SSE 6.9 mph - N/A   Unknown
1:52 AM 60.1 °F 30.0 °F 32% 29.98 in - SE 6.9 mph - N/A   Unknown
2:52 AM 55.0 °F 28.0 °F 35% 29.99 in - SE 8.1 mph - N/A   Unknown
3:52 AM 53.1 °F 28.0 °F 38% 29.98 in - SSW 5.8 mph - N/A   Unknown
4:52 AM 52.0 °F 28.0 °F 40% 29.99 in - SSE 5.8 mph - N/A   Unknown
5:52 AM 50.0 °F 28.0 °F 43% 30.00 in - SSE 5.8 mph - N/A   Unknown
6:52 AM 52.0 °F 30.0 °F 43% 30.01 in - South 5.8 mph - N/A   Unknown
7:52 AM 61.0 °F 33.1 °F 35% 30.02 in - Calm Calm - N/A   Unknown
8:52 AM 69.1 °F 35.1 °F 29% 30.01 in - Calm Calm - N/A   Unknown
9:52 AM 73.9 °F 34.0 °F 23% 30.00 in - Calm Calm - N/A   Unknown
10:52 AM 79.0 °F 34.0 °F 20% 29.99 in - NNW 5.8 mph - N/A   Unknown
11:52 AM 82.9 °F 35.1 °F 18% 29.97 in - Calm Calm - N/A   Unknown
12:52 PM 88.0 °F 30.9 °F 13% 29.95 in - Calm Calm - N/A   Unknown
1:52 PM 91.0 °F 23.0 °F 8% 29.91 in - West 8.1 mph - N/A   Unknown
2:52 PM 91.9 °F 19.0 °F 7% 29.89 in - Calm Calm - N/A   Unknown
3:52 PM 93.9 °F 23.0 °F 8% 29.86 in - SW 9.2 mph 16.1 mph N/A   Unknown
4:52 PM 93.9 °F 25.0 °F 8% 29.84 in - WSW 9.2 mph - N/A   Unknown
5:52 PM 93.9 °F 27.0 °F 9% 29.83 in - SW 12.7 mph - N/A   Unknown
6:52 PM 90.0 °F 27.0 °F 10% 29.83 in - SW 8.1 mph - N/A   Unknown
7:52 PM 88.0 °F 25.0 °F 10% 29.83 in - Calm Calm - N/A   Unknown
8:52 PM 79.0 °F 28.9 °F 16% 29.84 in - SE 12.7 mph - N/A   Unknown
9:52 PM 78.1 °F 28.9 °F 17% 29.85 in - WSW 15.0 mph 23.0 mph N/A   Unknown
10:52 PM 71.1 °F 28.9 °F 21% 29.85 in - SE 9.2 mph - N/A   Unknown
11:52 PM 69.1 °F 28.9 °F 22% 29.85 in - SSE 6.9 mph - N/A   Unknown